[[{"header":{"parameterUnit":"m.s-1","parameterCategory":2,"la1":30.2991,"la2":30.254,"lo1":-89.0895,"lo2":-89.0444,"dy":0.0017,"dx":0.0017,"nx":28,"ny":28,"refTime":"2024-04-15T03:00:00:Z","depth":"0","parameterNumber":2,"parameterNumberName":"U-component_of_CURRENTS"},"data":[0,0,0,0,0,0,0,0,0,0,0,0,0,0,0,0,0,0,0,0,0,0,0,0,0,0,0,0,0,0,0,0,0,0,0,0,0,0,0,0,0,0,0,0,0,0,0,0,0,0,0,0,0,0,0,0,0,0,0.2155,0.2156,0,0.2172,0.2172,0.2172,0.2169,0.2169,0.2169,0.2169,0.222,0.2222,0.2223,0,0,0,0,0,0,0,0,0,0,0,0,0,0.2077,0.2079,0.2155,0.2156,0.2156,0.2172,0.2172,0.2172,0.2169,0.2169,0.2169,0.2169,0.222,0.2221,0.2223,0,0,0,0,0,0,0,0,0,0,0,0,0,0.2101,0.2079,0.2155,0.2159,0.216,0.2172,0.2172,0.2172,0.2169,0.2169,0.2169,0.2169,0.2219,0.2221,0.2223,0.2237,0,0,0.223,0.2231,0,0,0,0,0,0,0,0,0.21,0.2104,0.2158,0.2159,0.216,0.2171,0.2164,0.2197,0.2169,0.2162,0.2169,0.2169,0.2209,0.2212,0.221,0.2239,0.2241,0.223,0.2231,0.2232,0.2233,0,0,0,0,0,0,0,0.2098,0.2103,0.2159,0.2159,0.216,0.2145,0.2149,0.2169,0.2184,0.2162,0.2163,0.217,0.2209,0.2208,0.2212,0.2242,0.223,0.2232,0.2233,0.2234,0.2298,0.2298,0,0,0,0,0,0,0.2106,0.2102,0.2158,0.216,0.2133,0.2147,0.2151,0.2165,0.2183,0.2186,0.217,0.217,0.2205,0.2209,0.2214,0.2264,0.2232,0.2234,0.2235,0.2297,0.2298,0.2298,0,0,0,0,0,0,0.2104,0.2111,0.2158,0.2133,0.2138,0.2149,0.2164,0.2165,0.2163,0.2189,0.2192,0.2167,0.2205,0.2211,0.2234,0.2265,0.2235,0.2237,0.2297,0.2297,0.2298,0.2345,0,0,0,0,0,0,0.2102,0.211,0.212,0.2134,0.214,0.2174,0.2165,0.2166,0.2169,0.2168,0.2188,0.2192,0.2205,0.2231,0.2236,0.2268,0.2239,0.2296,0.2297,0.2298,0.2343,0.2347,0.2351,0,0,0,0,0,0.2099,0.2117,0.2121,0.2128,0.2155,0.2175,0.2176,0.2181,0.2169,0.2175,0.2183,0.2191,0.224,0.2233,0.2239,0.2272,0.2296,0.2297,0.2298,0.2341,0.2346,0.2351,0,0,0,0,0,0,0.2085,0.2119,0.2124,0.215,0.2165,0.2176,0.2185,0.2179,0.2187,0.219,0.2197,0.2204,0.224,0.224,0.2231,0.2289,0.2269,0.2271,0.23,0.2305,0.2309,0.2341,0.224,0,0,0,0,0,0.2089,0.2111,0.2136,0.2155,0.2167,0.2172,0.2178,0.2183,0.2194,0.2196,0.2207,0.2222,0.2248,0.2262,0.2284,0.2312,0.2344,0.2335,0.2339,0.2342,0.2371,0.2462,0.2478,0.2301,0.2301,0.2301,0,0,0.2084,0.2109,0.2118,0.2153,0.2165,0.2191,0.2175,0.2194,0.2216,0.2204,0.2231,0.224,0.2258,0.2297,0.2312,0.2301,0.2399,0.2344,0.2347,0.2374,0.2465,0.2483,0.2499,0.2302,0.2302,0.2302,0,0,0.2091,0.2115,0.2136,0.2157,0.2188,0.2202,0.2207,0.2223,0.2233,0.2258,0.226,0.2289,0.2309,0.2343,0.2359,0.2395,0.242,0.2389,0.2439,0.2527,0.2543,0.2558,0.2583,0.2601,0.2389,0.2389,0.2389,0,0.2083,0.2121,0.2142,0.2173,0.2196,0.2208,0.2236,0.2254,0.2272,0.2295,0.2275,0.233,0.2343,0.2407,0.2422,0.2412,0.2442,0.2421,0.2536,0.2552,0.2567,0.259,0.2608,0.2391,0.2391,0.2391,0.2391,0,0.2106,0.2141,0.2158,0.2207,0.2233,0.2261,0.2297,0.2318,0.2327,0.235,0.2403,0.2417,0.2455,0.2457,0.2456,0.2557,0.2536,0.2535,0.2532,0.2588,0.2607,0.2625,0.2395,0.2394,0.2393,0.2393,0,0,0.2074,0.2158,0.2163,0.2197,0.2257,0.228,0.2331,0.2387,0.2422,0.2448,0.2498,0.2546,0.2556,0.2575,0.2573,0.2642,0.2755,0.2636,0.264,0.2675,0.2915,0.2731,0.2732,0.2784,0.2788,0.2791,0.2873,0,0.2084,0.2152,0.219,0.2251,0.2291,0.2333,0.238,0.2434,0.247,0.2522,0.2565,0.261,0.26,0.2613,0.2691,0.2743,0.2812,0.2731,0.2845,0.2848,0.269,0.2752,0.2555,0.2598,0.2891,0.2894,0.2896,0,0.2084,0.2141,0.2203,0.2292,0.2311,0.2346,0.2426,0.247,0.2557,0.2584,0.2649,0.2679,0.2777,0.2753,0.2906,0.2856,0.2905,0.2937,0.2941,0.2776,0.2699,0.2596,0.262,0.2538,0.2924,0.2922,0.292,0,0.205,0.2143,0.2196,0.2225,0.2326,0.2357,0.2405,0.2488,0.2529,0.2625,0.2662,0.2775,0.2822,0.2929,0.2992,0.2972,0.3144,0.3121,0.2999,0.2984,0.2843,0.2807,0.2817,0.3259,0.3259,0.3258,0.3258,0,0.2041,0.2082,0.2184,0.2213,0.2282,0.2346,0.2408,0.2467,0.2545,0.2605,0.2691,0.2746,0.288,0.2976,0.3037,0.3059,0.3189,0.3028,0.3012,0.2841,0.2807,0.2746,0.2733,0.3261,0.3261,0.326,0.326,0,0.1988,0.2052,0.2125,0.2235,0.2266,0.2311,0.2398,0.2438,0.2517,0.2593,0.2627,0.2759,0.2866,0.2963,0.3118,0.3081,0.3024,0.312,0.2868,0.2819,0.2553,0.2548,0.2463,0.2404,0.2982,0.2978,0.2975,0,0.1963,0.1997,0.2125,0.2171,0.2218,0.2287,0.233,0.2412,0.245,0.2589,0.2622,0.2748,0.2815,0.2926,0.2901,0.2936,0.2913,0.2747,0.2668,0.2522,0.251,0.243,0.2384,0.2497,0.249,0.2485,0.248,0,0.1932,0.198,0.2058,0.2153,0.2207,0.2255,0.2317,0.2341,0.2436,0.2495,0.259,0.2658,0.2715,0.264,0.2631,0.2629,0.2547,0.2624,0.2585,0.2219,0.2031,0.1969,0.2428,0.243,0.2435,0.2439,0.2441,0.2443,0.1914,0.1965,0.207,0.215,0.2196,0.2215,0.2213,0.2269,0.231,0.2352,0.2481,0.2482,0.2426,0.2362,0.234,0.2097,0.2192,0.199,0.2025,0.1978,0.1828,0.2123,0.2027,0.2029,0.2031,0.2033,0.2035,0,0.1906,0.1975,0.2057,0.2132,0.2131,0.2173,0.2194,0.216,0.2157,0.2198,0.2236,0.2118,0.1985,0.1918,0.1677,0.1537,0.1493,0.1483,0.1383,0.1396,0.1758,0.164,0.1316,0.1316,0.1317,0.1317,0.1317,0.1317,0.1911,0.1993,0.2046,0.2056,0.2071,0.201,0.1994,0.1956,0.1944,0.1842,0.1735,0.1742,0.1661,0.1438,0.1219,0.1176,0.1117,0.0962,0.1081,0.1373,0.1425,0.1474,0.1361,0.0984,0.0984,0.0609,0.0606,0.0604]},{"header":{"parameterUnit":"m.s-1","parameterCategory":2,"la1":30.2991,"la2":30.254,"lo1":-89.0895,"lo2":-89.0444,"dy":0.0017,"dx":0.0017,"nx":28,"ny":28,"refTime":"2024-04-15T03:00:00:Z","depth":"0","parameterNumber":3,"parameterNumberName":"V-component_of_CURRENTS"},"data":[0,0,0,0,0,0,0,0,0,0,0,0,0,0,0,0,0,0,0,0,0,0,0,0,0,0,0,0,0,0,0,0,0,0,0,0,0,0,0,0,0,0,0,0,0,0,0,0,0,0,0,0,0,0,0,0,0,0,0.0154,0.0153,0,0.0131,0.0131,0.0131,0.0104,0.0103,0.0103,0.0103,0.0045,0.0043,0.0042,0,0,0,0,0,0,0,0,0,0,0,0,0,0.0169,0.0169,0.0154,0.0153,0.0153,0.0131,0.0131,0.0131,0.0104,0.0103,0.0103,0.0102,0.0045,0.0044,0.0042,0,0,0,0,0,0,0,0,0,0,0,0,0,0.0156,0.0169,0.0154,0.0137,0.0135,0.0131,0.0131,0.0131,0.0104,0.0103,0.0103,0.0102,0.0045,0.0044,0.0042,0.0046,0,0,0.0037,0.0036,0,0,0,0,0,0,0,0,0.0157,0.0156,0.0139,0.0138,0.0136,0.0119,0.0115,0.01,0.0104,0.0116,0.0103,0.0102,0.0066,0.0063,0.0062,0.0043,0.004,0.0037,0.0036,0.0035,0.0035,0,0,0,0,0,0,0,0.0158,0.0157,0.0145,0.0139,0.0137,0.0128,0.0126,0.0112,0.0095,0.0115,0.0113,0.011,0.0065,0.0063,0.006,0.004,0.0037,0.0035,0.0034,0.0034,0.0049,0.005,0,0,0,0,0,0,0.0161,0.0158,0.0146,0.0145,0.0144,0.0129,0.0126,0.0126,0.0096,0.0091,0.0111,0.0109,0.0066,0.0062,0.0058,0.0079,0.0035,0.0034,0.0033,0.0048,0.0049,0.0051,0,0,0,0,0,0,0.0161,0.016,0.0147,0.015,0.0148,0.0129,0.0129,0.0126,0.0121,0.0093,0.0087,0.0109,0.0066,0.006,0.0049,0.0075,0.0033,0.0031,0.0046,0.0048,0.005,0.0109,0,0,0,0,0,0,0.0162,0.0161,0.0164,0.015,0.0147,0.0145,0.0129,0.0126,0.012,0.0117,0.009,0.0084,0.0065,0.0052,0.0047,0.0072,0.003,0.0044,0.0047,0.0049,0.0105,0.0113,0.0119,0,0,0,0,0,0.0163,0.0171,0.0164,0.0163,0.0152,0.0145,0.0144,0.0128,0.0121,0.0121,0.0106,0.0084,0.0066,0.0051,0.0046,0.0071,0.0043,0.0046,0.0049,0.0102,0.0111,0.0119,0,0,0,0,0,0,0.0182,0.0169,0.0161,0.0165,0.0155,0.0141,0.0143,0.0132,0.0121,0.0118,0.0092,0.0085,0.0091,0.0073,0.0057,0.0086,0.0056,0.0058,0.0098,0.0106,0.0113,0.0145,0.0029,0,0,0,0,0,0.0188,0.0189,0.0174,0.0178,0.0175,0.016,0.0157,0.0145,0.0133,0.0127,0.0112,0.0102,0.0102,0.0095,0.0089,0.0095,0.0106,0.0112,0.0119,0.0125,0.015,0.0221,0.0237,0.0061,0.0061,0.0061,0,0,0.0197,0.019,0.0191,0.0182,0.0176,0.0178,0.0157,0.0153,0.0158,0.0123,0.0129,0.0122,0.0109,0.0122,0.0124,0.0108,0.017,0.0129,0.0135,0.0157,0.0226,0.0243,0.0258,0.0063,0.0063,0.0063,0,0,0.0218,0.0211,0.0219,0.0212,0.0201,0.0193,0.0193,0.0181,0.0178,0.0179,0.0167,0.0184,0.0163,0.0178,0.0179,0.0223,0.0207,0.0212,0.027,0.0338,0.0354,0.0368,0.0357,0.037,0.0214,0.0214,0.0214,0,0.0229,0.0235,0.0221,0.0225,0.0224,0.0202,0.0211,0.0209,0.0196,0.0213,0.0188,0.0222,0.0202,0.0251,0.0262,0.0242,0.025,0.0235,0.0349,0.0364,0.0377,0.0363,0.0377,0.0217,0.0217,0.0217,0.0216,0,0.0252,0.0256,0.0262,0.0261,0.0261,0.0262,0.0255,0.0263,0.0259,0.0267,0.031,0.0303,0.0333,0.0326,0.0301,0.0388,0.0349,0.0351,0.033,0.0399,0.0378,0.0391,0.0222,0.0221,0.022,0.0219,0,0,0.0279,0.0277,0.028,0.0284,0.0277,0.028,0.03,0.0322,0.0365,0.0361,0.0428,0.0432,0.0448,0.0453,0.044,0.0489,0.0562,0.0459,0.0461,0.045,0.0661,0.0592,0.0598,0.0589,0.0592,0.0595,0.0591,0,0.03,0.0314,0.0311,0.0331,0.0336,0.0332,0.0362,0.0383,0.0409,0.0469,0.0489,0.0541,0.0489,0.0519,0.0562,0.0577,0.0606,0.0559,0.0595,0.0595,0.053,0.0617,0.0614,0.0609,0.0604,0.0606,0.0607,0,0.0324,0.0329,0.0348,0.0371,0.0377,0.039,0.0449,0.0473,0.0548,0.0578,0.0641,0.0661,0.0726,0.0683,0.0745,0.0717,0.0697,0.0694,0.0695,0.063,0.0554,0.055,0.0632,0.0605,0.0627,0.0625,0.0624,0,0.0346,0.0359,0.0375,0.0376,0.04,0.0422,0.0444,0.0511,0.0572,0.0664,0.0738,0.0795,0.0853,0.0864,0.0833,0.0807,0.0893,0.0857,0.0766,0.0756,0.0763,0.075,0.0836,0.0917,0.0917,0.0917,0.0917,0,0.0367,0.0383,0.0384,0.0393,0.0435,0.0446,0.0529,0.0563,0.0669,0.078,0.0803,0.0909,0.0915,0.0951,0.0894,0.0867,0.094,0.0801,0.0782,0.0774,0.0762,0.0743,0.0712,0.0917,0.0917,0.0917,0.0917,0,0.0391,0.0389,0.0407,0.0429,0.0443,0.0472,0.0568,0.0656,0.0733,0.0886,0.0928,0.1025,0.107,0.103,0.1047,0.0955,0.0899,0.0886,0.083,0.0805,0.0675,0.0645,0.0689,0.0684,0.0795,0.0794,0.0793,0,0.0403,0.0412,0.043,0.0458,0.0467,0.0525,0.0598,0.0677,0.0789,0.0964,0.1058,0.1138,0.1214,0.1168,0.1043,0.0927,0.0885,0.0815,0.0778,0.0696,0.065,0.0625,0.0617,0.0783,0.0782,0.0781,0.078,0,0.0426,0.0428,0.0444,0.0504,0.0561,0.0645,0.0748,0.0839,0.0974,0.1099,0.1265,0.1331,0.1289,0.1198,0.1016,0.0926,0.0794,0.079,0.0772,0.0713,0.0635,0.0609,0.0692,0.0772,0.0773,0.0774,0.0774,0.0775,0.0445,0.0462,0.0498,0.056,0.0641,0.077,0.0851,0.0987,0.1147,0.1328,0.1383,0.1466,0.1321,0.109,0.0974,0.0734,0.0742,0.0655,0.0637,0.0628,0.0612,0.0629,0.0647,0.0647,0.0647,0.0647,0.0647,0,0.0467,0.0504,0.0567,0.0654,0.0773,0.0805,0.0972,0.1061,0.1236,0.1378,0.1491,0.1431,0.1265,0.1061,0.0749,0.0614,0.0586,0.0548,0.0554,0.0564,0.065,0.0638,0.0578,0.0578,0.0578,0.0578,0.0578,0.0578,0.0485,0.0544,0.0585,0.0763,0.0845,0.0991,0.1083,0.1188,0.1291,0.14,0.1419,0.1439,0.129,0.0851,0.0598,0.0544,0.05,0.0446,0.044,0.0522,0.0532,0.0542,0.0527,0.0445,0.0444,0.0383,0.0382,0.0382]}],[{"header":{"parameterUnit":"m.s-1","parameterCategory":2,"la1":30.2991,"la2":30.254,"lo1":-89.0895,"lo2":-89.0444,"dy":0.0017,"dx":0.0017,"nx":28,"ny":28,"refTime":"2024-04-15T03:00:00:Z","depth":"2","parameterNumber":2,"parameterNumberName":"U-component_of_CURRENTS"},"data":[0,0,0,0,0,0,0,0,0,0,0,0,0,0,0,0,0,0,0,0,0,0,0,0,0,0,0,0,0,0,0,0,0,0,0,0,0,0,0,0,0,0,0,0,0,0,0,0,0,0,0,0,0,0,0,0,0,0,0.177,0.1771,0,0.1754,0.1753,0.1753,0.1754,0.1755,0.1756,0.1756,0.1935,0.1939,0.1943,0,0,0,0,0,0,0,0,0,0,0,0,0,0.1765,0.1765,0.177,0.1771,0.1771,0.1754,0.1753,0.1753,0.1754,0.1755,0.1756,0.1757,0.1934,0.1938,0.1943,0,0,0,0,0,0,0,0,0,0,0,0,0,0.1754,0.1765,0.177,0.1775,0.1775,0.1754,0.1753,0.1752,0.1753,0.1755,0.1756,0.1757,0.1932,0.1938,0.1944,0.1955,0,0,0.1962,0.1965,0,0,0,0,0,0,0,0,0.1754,0.1753,0.1774,0.1774,0.1775,0.1763,0.1817,0.1832,0.1753,0.1755,0.1756,0.1758,0.1899,0.1908,0.189,0.1963,0.1971,0.1962,0.1966,0.1969,0.197,0,0,0,0,0,0,0,0.1755,0.1754,0.1757,0.1774,0.1775,0.1765,0.1764,0.1818,0.1818,0.1755,0.1756,0.1765,0.19,0.1883,0.1895,0.1974,0.1962,0.1968,0.1971,0.1974,0.2113,0.2113,0,0,0,0,0,0,0.1771,0.1754,0.1758,0.1757,0.1775,0.1765,0.1764,0.176,0.1814,0.1823,0.1764,0.1765,0.1873,0.1887,0.1901,0.2009,0.1969,0.1974,0.1978,0.2113,0.2113,0.2113,0,0,0,0,0,0,0.177,0.1771,0.1759,0.1762,0.176,0.1764,0.176,0.1759,0.176,0.182,0.1832,0.1769,0.1874,0.1893,0.1948,0.2013,0.1977,0.1982,0.2112,0.2113,0.2113,0.2168,0,0,0,0,0,0,0.177,0.177,0.177,0.1762,0.1761,0.1759,0.1759,0.1758,0.1766,0.1768,0.1828,0.1844,0.1877,0.1938,0.1954,0.2021,0.1987,0.2112,0.2113,0.2113,0.2166,0.217,0.2173,0,0,0,0,0,0.177,0.1771,0.177,0.1771,0.1761,0.1759,0.1757,0.176,0.1765,0.1764,0.1796,0.1843,0.1952,0.1943,0.1961,0.2032,0.2112,0.2113,0.2113,0.2164,0.2169,0.2173,0,0,0,0,0,0,0.177,0.1771,0.177,0.1772,0.1772,0.1763,0.1769,0.1765,0.1782,0.18,0.1841,0.1859,0.1938,0.1955,0.1944,0.2064,0.2042,0.2046,0.2075,0.208,0.2084,0.2126,0.1992,0,0,0,0,0,0.177,0.1775,0.177,0.1776,0.1777,0.1772,0.1772,0.1778,0.1793,0.18,0.1837,0.1885,0.1946,0.1988,0.2032,0.2096,0.212,0.2149,0.2153,0.2156,0.2198,0.2282,0.2299,0.2114,0.2114,0.2114,0,0,0.1775,0.1778,0.1781,0.1777,0.1778,0.1783,0.1774,0.1788,0.181,0.1825,0.1868,0.1905,0.1961,0.2032,0.207,0.2063,0.2204,0.2156,0.216,0.2201,0.2284,0.2303,0.2319,0.2114,0.2114,0.2114,0,0,0.1789,0.1788,0.1793,0.1797,0.181,0.1804,0.1813,0.1812,0.1832,0.1869,0.1896,0.197,0.2027,0.2096,0.2138,0.2188,0.2218,0.219,0.2262,0.2342,0.2359,0.2375,0.2365,0.238,0.2197,0.2197,0.2197,0,0.1791,0.1797,0.1796,0.1806,0.182,0.1817,0.1831,0.1846,0.1866,0.1906,0.1898,0.2023,0.2076,0.2199,0.2218,0.2212,0.2216,0.2247,0.2353,0.2369,0.2385,0.2371,0.2387,0.2199,0.2199,0.2199,0.2199,0,0.1808,0.1815,0.1825,0.1834,0.1846,0.1861,0.1886,0.1907,0.1932,0.1963,0.2075,0.2132,0.2219,0.2242,0.2259,0.2396,0.2344,0.2346,0.2352,0.2408,0.2387,0.2403,0.2203,0.2202,0.2201,0.2201,0,0,0.1795,0.1825,0.1829,0.1852,0.1867,0.1886,0.193,0.1979,0.2046,0.2085,0.2194,0.2296,0.2337,0.2387,0.2421,0.25,0.2597,0.2475,0.2478,0.2483,0.2706,0.2514,0.2511,0.2616,0.262,0.2624,0.2625,0,0.1802,0.1835,0.1846,0.1887,0.1907,0.1932,0.1978,0.2038,0.2101,0.2202,0.2303,0.2419,0.2389,0.2464,0.2535,0.261,0.2651,0.2593,0.2637,0.2638,0.2479,0.253,0.2323,0.2295,0.264,0.2642,0.2644,0,0.18,0.1832,0.1868,0.1937,0.195,0.1979,0.2079,0.2127,0.2261,0.2328,0.2447,0.252,0.267,0.2638,0.2765,0.2722,0.2723,0.2749,0.2749,0.258,0.2478,0.2307,0.231,0.267,0.2668,0.2666,0.2665,0,0.1791,0.1846,0.1884,0.1903,0.1971,0.2016,0.2064,0.2173,0.2251,0.2438,0.252,0.2671,0.2767,0.2832,0.285,0.2834,0.2955,0.2935,0.2741,0.2723,0.2565,0.2526,0.3019,0.3019,0.3019,0.3019,0.3019,0,0.1775,0.181,0.1895,0.1914,0.2007,0.205,0.2161,0.2236,0.2373,0.2478,0.2597,0.2708,0.2827,0.2889,0.2899,0.2844,0.2979,0.2773,0.2738,0.2562,0.2525,0.288,0.2864,0.3019,0.3019,0.3019,0.3019,0,0.174,0.178,0.1858,0.1959,0.1996,0.208,0.2207,0.2285,0.2401,0.2548,0.2617,0.2767,0.2824,0.2855,0.2957,0.287,0.2879,0.281,0.2541,0.2474,0.2573,0.256,0.2625,0.2618,0.2613,0.2609,0.2605,0,0.1717,0.1742,0.1892,0.1956,0.2004,0.212,0.2181,0.2306,0.2383,0.2564,0.2629,0.2733,0.2732,0.2746,0.2688,0.2613,0.2728,0.2359,0.2308,0.2588,0.2548,0.2542,0.2535,0.2095,0.2088,0.2082,0.2077,0,0.1692,0.1755,0.1826,0.1959,0.2052,0.2149,0.2246,0.23,0.2424,0.2508,0.2574,0.2586,0.2542,0.2378,0.2268,0.2221,0.2361,0.2223,0.2656,0.2204,0.2083,0.2044,0.2058,0.2022,0.2027,0.2031,0.2034,0.2036,0.1688,0.1763,0.1862,0.1984,0.2079,0.215,0.2181,0.2228,0.2301,0.2299,0.2392,0.227,0.2211,0.1921,0.1838,0.179,0.1955,0.1872,0.1895,0.1923,0.184,0.1714,0.1563,0.1566,0.1568,0.157,0.1572,0,0.1714,0.1786,0.1875,0.2012,0.2065,0.2132,0.2192,0.2135,0.2119,0.2071,0.2003,0.1719,0.1552,0.1528,0.135,0.1294,0.1336,0.1248,0.1312,0.1366,0.1413,0.1309,0.0889,0.0887,0.0885,0.0884,0,0,0.1736,0.1826,0.1875,0.1967,0.2027,0.2038,0.2045,0.1927,0.1847,0.1622,0.149,0.1436,0.146,0.1159,0.1096,0.0977,0.1178,0.0929,0.1475,0.1607,0.1653,0.1763,0.1658,0,0,0,0,0]},{"header":{"parameterUnit":"m.s-1","parameterCategory":2,"la1":30.2991,"la2":30.254,"lo1":-89.0895,"lo2":-89.0444,"dy":0.0017,"dx":0.0017,"nx":28,"ny":28,"refTime":"2024-04-15T03:00:00:Z","depth":"2","parameterNumber":3,"parameterNumberName":"V-component_of_CURRENTS"},"data":[0,0,0,0,0,0,0,0,0,0,0,0,0,0,0,0,0,0,0,0,0,0,0,0,0,0,0,0,0,0,0,0,0,0,0,0,0,0,0,0,0,0,0,0,0,0,0,0,0,0,0,0,0,0,0,0,0,0,-0.0032,-0.0033,0,-0.0059,-0.0059,-0.0059,-0.007,-0.007,-0.007,-0.007,-0.017,-0.0173,-0.0176,0,0,0,0,0,0,0,0,0,0,0,0,0,0.0001,0.0001,-0.0032,-0.0033,-0.0033,-0.0058,-0.0059,-0.0059,-0.007,-0.007,-0.007,-0.007,-0.017,-0.0173,-0.0176,0,0,0,0,0,0,0,0,0,0,0,0,0,-0.0017,0.0001,-0.0032,-0.0042,-0.0043,-0.0058,-0.0059,-0.0059,-0.007,-0.007,-0.007,-0.007,-0.0168,-0.0172,-0.0176,-0.0201,0,0,-0.0189,-0.019,0,0,0,0,0,0,0,0,-0.0016,-0.0018,-0.004,-0.0041,-0.0043,-0.0061,-0.0084,-0.0111,-0.007,-0.0059,-0.007,-0.007,-0.0141,-0.0148,-0.015,-0.0206,-0.021,-0.0189,-0.0191,-0.0193,-0.0194,0,0,0,0,0,0,0,-0.0015,-0.0017,-0.0042,-0.0041,-0.0042,-0.0047,-0.005,-0.0089,-0.0101,-0.006,-0.0061,-0.0065,-0.0142,-0.0146,-0.0153,-0.0212,-0.0189,-0.0192,-0.0195,-0.0196,-0.0253,-0.0252,0,0,0,0,0,0,-0.0013,-0.0016,-0.0041,-0.0043,-0.003,-0.0048,-0.0051,-0.0055,-0.0099,-0.0105,-0.0065,-0.0065,-0.014,-0.0148,-0.0157,-0.0168,-0.0193,-0.0197,-0.0199,-0.0254,-0.0253,-0.0252,0,0,0,0,0,0,-0.0012,-0.0015,-0.004,-0.0031,-0.0034,-0.0049,-0.0053,-0.0055,-0.0057,-0.0102,-0.0109,-0.0064,-0.014,-0.0151,-0.018,-0.0173,-0.0199,-0.0202,-0.0255,-0.0253,-0.0252,-0.0204,0,0,0,0,0,0,-0.0011,-0.0014,-0.0014,-0.003,-0.0035,-0.0045,-0.0053,-0.0056,-0.006,-0.0061,-0.0104,-0.0113,-0.0141,-0.0174,-0.0184,-0.0179,-0.0205,-0.0256,-0.0254,-0.0253,-0.0207,-0.0202,-0.0197,0,0,0,0,0,-0.0009,-0.0009,-0.0014,-0.0017,-0.0035,-0.0045,-0.0048,-0.0058,-0.006,-0.0059,-0.0083,-0.0112,-0.017,-0.0177,-0.0189,-0.0185,-0.0257,-0.0255,-0.0253,-0.0209,-0.0203,-0.0197,0,0,0,0,0,0,0.0009,-0.0011,-0.0016,-0.0021,-0.0031,-0.0047,-0.0048,-0.0055,-0.0071,-0.0075,-0.0111,-0.0122,-0.0141,-0.0168,-0.0174,-0.0192,-0.0214,-0.0215,-0.0177,-0.0171,-0.0166,-0.0141,-0.0209,0,0,0,0,0,0.0012,0.0006,-0.0011,-0.0013,-0.0018,-0.0032,-0.0037,-0.0045,-0.0063,-0.0069,-0.0097,-0.0123,-0.0142,-0.016,-0.0185,-0.0206,-0.0196,-0.0206,-0.0201,-0.0196,-0.0181,-0.0112,-0.0098,-0.0245,-0.0245,-0.0245,0,0,0.0019,0.0008,0.0005,-0.001,-0.0018,-0.0024,-0.0035,-0.0042,-0.0049,-0.0081,-0.0097,-0.0113,-0.0143,-0.0156,-0.0167,-0.018,-0.016,-0.0194,-0.019,-0.0177,-0.0108,-0.0093,-0.0081,-0.0244,-0.0244,-0.0244,0,0,0.003,0.002,0.0018,0.0007,-0.0008,-0.0016,-0.0017,-0.0034,-0.0042,-0.0061,-0.0074,-0.007,-0.0126,-0.0122,-0.0133,-0.0113,-0.0133,-0.0134,-0.0093,-0.0026,-0.0013,-0.0001,-0.0015,-0.0004,-0.0132,-0.0132,-0.0132,0,0.004,0.0031,0.0018,0.001,-0.0001,-0.001,-0.0018,-0.0025,-0.0048,-0.0051,-0.0063,-0.0071,-0.0099,-0.0084,-0.0077,-0.01,-0.0092,-0.0118,-0.0017,-0.0004,0.0007,-0.001,0.0001,-0.013,-0.013,-0.013,-0.013,0,0.0046,0.0037,0.0035,0.0022,0.001,0.0003,-0.0014,-0.0019,-0.0029,-0.0032,-0.0021,-0.0027,-0.002,-0.0032,-0.0058,0.0006,-0.0029,-0.0016,-0.0029,0.0025,0.0002,0.0013,-0.0126,-0.0127,-0.0128,-0.0128,0,0,0.0075,0.0045,0.0045,0.0026,0.0011,-0.0004,-0.0006,-0.0011,0.0007,-0.0002,0.0042,0.002,0.0045,0.0038,0.0033,0.0082,0.0147,0.0064,0.0067,0.0054,0.0242,0.0196,0.0202,0.0185,0.0189,0.0191,0.0177,0,0.0085,0.0064,0.0051,0.003,0.0013,-0.0001,0.0001,-0.0005,0.0009,0.0053,0.0073,0.0121,0.0064,0.0106,0.0137,0.0174,0.0184,0.0145,0.0188,0.0188,0.0147,0.0218,0.0222,0.021,0.0187,0.0189,0.019,0,0.0099,0.0074,0.0056,0.0017,0.0011,0.0004,0.001,0.0016,0.0072,0.0101,0.016,0.02,0.0273,0.0244,0.03,0.0279,0.0253,0.026,0.0261,0.0218,0.0165,0.0162,0.023,0.0208,0.0206,0.0205,0.0204,0,0.0113,0.0076,0.0057,0.0042,0.0012,0.0001,-0.0005,0.0027,0.008,0.0176,0.0269,0.0317,0.0412,0.0411,0.0398,0.0374,0.0455,0.043,0.0338,0.033,0.0342,0.0332,0.0458,0.0458,0.0458,0.0458,0.0458,0,0.0127,0.0108,0.0055,0.0043,0.0022,-0.0,0.0041,0.0047,0.016,0.0276,0.0315,0.0443,0.0475,0.052,0.0454,0.043,0.0494,0.0361,0.0352,0.035,0.0341,0.0354,0.0343,0.0457,0.0457,0.0458,0.0458,0,0.0153,0.0128,0.0092,0.0044,0.0032,0.0016,0.0077,0.0147,0.023,0.0409,0.0476,0.0593,0.065,0.061,0.0629,0.0532,0.0498,0.0449,0.0399,0.0385,0.0295,0.0286,0.0371,0.037,0.0369,0.0368,0.0368,0,0.0165,0.0154,0.0096,0.0087,0.0065,0.0066,0.0113,0.018,0.0298,0.0503,0.0617,0.0726,0.0798,0.0752,0.064,0.0511,0.0484,0.0406,0.0371,0.0318,0.0301,0.0293,0.0285,0.0376,0.0375,0.0375,0.0374,0,0.0179,0.0165,0.0129,0.0119,0.0133,0.0191,0.0261,0.0361,0.0509,0.0662,0.0848,0.0916,0.0878,0.0786,0.0602,0.0508,0.0434,0.039,0.0422,0.0391,0.0321,0.0303,0.0296,0.037,0.0371,0.0371,0.0371,0.0371,0.019,0.0166,0.0142,0.0136,0.0195,0.032,0.04,0.0518,0.0697,0.0903,0.0954,0.102,0.0913,0.0677,0.0536,0.0386,0.0398,0.0324,0.0327,0.033,0.0329,0.0261,0.0293,0.0293,0.0293,0.0293,0.0293,0,0.0196,0.0181,0.0174,0.0206,0.0332,0.0365,0.0529,0.063,0.0831,0.0933,0.105,0.0923,0.081,0.0663,0.0443,0.0307,0.0302,0.0253,0.0283,0.0288,0.0292,0.0289,0.0243,0.0242,0.0242,0.0241,0,0,0.0193,0.018,0.0176,0.0332,0.0425,0.0621,0.0737,0.0835,0.0906,0.0968,0.0985,0.0986,0.0834,0.0649,0.0488,0.0368,0.0351,0.0335,0.0392,0.0451,0.0457,0.0352,0.0356,0,0,0,0,0]}],[{"header":{"parameterUnit":"m.s-1","parameterCategory":2,"la1":30.2991,"la2":30.254,"lo1":-89.0895,"lo2":-89.0444,"dy":0.0017,"dx":0.0017,"nx":28,"ny":28,"refTime":"2024-04-15T03:00:00:Z","depth":"4","parameterNumber":2,"parameterNumberName":"U-component_of_CURRENTS"},"data":[0,0,0,0,0,0,0,0,0,0,0,0,0,0,0,0,0,0,0,0,0,0,0,0,0,0,0,0,0,0,0,0,0,0,0,0,0,0,0,0,0,0,0,0,0,0,0,0,0,0,0,0,0,0,0,0,0,0,0.0857,0.0857,0,0.0834,0.0834,0.0833,0.0836,0.0837,0.0838,0.0838,0.0714,0.071,0.0706,0,0,0,0,0,0,0,0,0,0,0,0,0,0.0892,0.0891,0.0857,0.0857,0.0858,0.0834,0.0834,0.0833,0.0836,0.0837,0.0838,0.0839,0.0716,0.0711,0.0706,0,0,0,0,0,0,0,0,0,0,0,0,0,0.087,0.0891,0.0857,0.0859,0.0859,0.0834,0.0834,0.0833,0.0836,0.0837,0.0838,0.0839,0.0717,0.0711,0.0705,0.0648,0,0,0.0687,0.0685,0,0,0,0,0,0,0,0,0.0871,0.0869,0.0859,0.0859,0.0859,0.0842,0.0801,0.0767,0.0836,0.0841,0.0838,0.084,0.0749,0.0741,0.0731,0.0642,0.0637,0.0687,0.0683,0.0681,0.0679,0,0,0,0,0,0,0,0.0873,0.087,0.0845,0.0859,0.0859,0.0857,0.0854,0.0794,0.0785,0.0841,0.0842,0.0844,0.0748,0.0736,0.0727,0.0635,0.0687,0.0682,0.0678,0.0676,0.0593,0.0595,0,0,0,0,0,0,0.0882,0.0871,0.0846,0.0844,0.0872,0.0855,0.0853,0.0844,0.0788,0.0782,0.0843,0.0845,0.0746,0.0734,0.0723,0.0741,0.0681,0.0675,0.0672,0.0592,0.0594,0.0595,0,0,0,0,0,0,0.0883,0.0879,0.0847,0.0861,0.0857,0.0854,0.0844,0.0843,0.0855,0.0792,0.0784,0.086,0.0746,0.0731,0.0715,0.0733,0.0672,0.0667,0.059,0.0592,0.0594,0.0719,0,0,0,0,0,0,0.0883,0.0879,0.0886,0.0861,0.0857,0.0843,0.0843,0.0842,0.0855,0.0857,0.0802,0.0791,0.0746,0.0724,0.0709,0.0724,0.0662,0.0589,0.0591,0.0594,0.0714,0.0726,0.0736,0,0,0,0,0,0.0884,0.0881,0.0886,0.0884,0.0862,0.0844,0.0841,0.0841,0.0855,0.0856,0.0846,0.0794,0.073,0.0721,0.0702,0.0716,0.0587,0.059,0.0593,0.0709,0.0723,0.0735,0,0,0,0,0,0,0.0897,0.0881,0.0886,0.0878,0.0871,0.0846,0.0852,0.0854,0.0847,0.0859,0.0806,0.0794,0.079,0.0735,0.0727,0.0702,0.065,0.065,0.0744,0.0757,0.0768,0.0743,0.0657,0,0,0,0,0,0.0904,0.0899,0.0885,0.0882,0.0883,0.0875,0.0874,0.0875,0.0862,0.0862,0.0833,0.0804,0.0781,0.0759,0.0724,0.0698,0.0693,0.0696,0.0708,0.0717,0.0686,0.0749,0.0764,0.0605,0.0605,0.0605,0,0,0.0909,0.0901,0.0899,0.0886,0.0883,0.0872,0.0876,0.0882,0.0877,0.0844,0.0843,0.084,0.0787,0.0779,0.0769,0.0737,0.0767,0.0721,0.073,0.0692,0.0754,0.077,0.0784,0.0607,0.0607,0.0607,0,0,0.0907,0.0911,0.0906,0.0894,0.0896,0.0891,0.09,0.0895,0.0902,0.0898,0.0895,0.0908,0.085,0.0835,0.0813,0.0854,0.0833,0.0852,0.0873,0.0938,0.0952,0.0963,0.1012,0.1027,0.0848,0.0849,0.0849,0,0.0927,0.0897,0.0903,0.0888,0.0873,0.0902,0.0883,0.0892,0.0888,0.0889,0.0908,0.0897,0.0868,0.0862,0.0891,0.0875,0.0914,0.0832,0.0955,0.0966,0.0976,0.1022,0.1038,0.0855,0.0854,0.0854,0.0853,0,0.0898,0.0884,0.088,0.0868,0.0859,0.085,0.0856,0.0883,0.0909,0.0904,0.0932,0.0937,0.0931,0.094,0.0922,0.0977,0.0986,0.0977,0.0927,0.1,0.1044,0.1058,0.0864,0.0862,0.086,0.0858,0,0,0.0917,0.0872,0.0871,0.0843,0.0841,0.0822,0.0848,0.0849,0.0873,0.0902,0.0936,0.0932,0.0974,0.0954,0.0973,0.1017,0.1147,0.1036,0.1036,0.1092,0.1306,0.1156,0.1156,0.1192,0.1194,0.1195,0.1321,0,0.0898,0.0838,0.0832,0.0788,0.0752,0.0783,0.0798,0.0812,0.0851,0.0905,0.0941,0.0979,0.0969,0.1022,0.1067,0.112,0.1183,0.1113,0.1214,0.1216,0.1081,0.1165,0.1202,0.1331,0.1334,0.1336,0.1338,0,0.0872,0.0821,0.0763,0.0723,0.0719,0.0721,0.0749,0.077,0.0852,0.0897,0.0962,0.1009,0.1079,0.1098,0.1203,0.1175,0.1247,0.1286,0.1293,0.1101,0.1088,0.1231,0.1361,0.136,0.1358,0.1356,0.1355,0,0.0839,0.0781,0.0724,0.0701,0.0674,0.0688,0.0711,0.0767,0.0812,0.0927,0.099,0.1064,0.1151,0.1229,0.1297,0.1289,0.1427,0.1424,0.1352,0.1344,0.1386,0.1372,0.1526,0.1526,0.1526,0.1526,0.1525,0,0.0803,0.0761,0.0708,0.0669,0.0622,0.0649,0.0684,0.0721,0.0854,0.0911,0.1001,0.1073,0.1201,0.1286,0.1339,0.1364,0.1466,0.1351,0.1363,0.144,0.1429,0.1398,0.1382,0.153,0.1529,0.1528,0.1528,0,0.077,0.0746,0.0661,0.0613,0.0601,0.0577,0.0659,0.0717,0.0834,0.0942,0.0998,0.1128,0.1214,0.1301,0.1439,0.1402,0.145,0.145,0.1523,0.1539,0.1321,0.131,0.1375,0.1371,0.1367,0.1364,0.1361,0,0.0747,0.0701,0.0592,0.0549,0.053,0.0532,0.0568,0.0692,0.0769,0.0944,0.0993,0.113,0.1199,0.1267,0.1345,0.1421,0.1413,0.143,0.1358,0.1298,0.1305,0.1299,0.1293,0.1356,0.1355,0.1354,0.1353,0,0.0671,0.0643,0.0535,0.0462,0.0456,0.0456,0.0521,0.0584,0.0762,0.0872,0.0986,0.1053,0.1141,0.1206,0.1277,0.1322,0.1398,0.1392,0.14,0.1332,0.1276,0.1285,0.1283,0.134,0.1342,0.1343,0.1344,0,0.06,0.0488,0.0391,0.0326,0.0334,0.0381,0.0425,0.0537,0.0639,0.0859,0.0887,0.102,0.1143,0.1157,0.1209,0.1236,0.1218,0.1182,0.12,0.1215,0.1093,0.0994,0.0982,0,0,0,0,0,0.0509,0.0375,0.0291,0.021,0.0266,0.0297,0.0393,0.0481,0.0659,0.0722,0.0822,0.0903,0.0985,0.1032,0.1031,0.1101,0.1199,0.1087,0.116,0.127,0.1284,0.115,0,0,0,0,0,0,0.043,0.0297,0.0226,0.0194,0.018,0.0245,0.0318,0.0432,0.048,0.0653,0.0705,0.0821,0.0908,0.0989,0.1008,0.1023,0.1042,0.117,0.1166,0.1261,0.1275,0.1286,0.1153,0,0,0,0,0]},{"header":{"parameterUnit":"m.s-1","parameterCategory":2,"la1":30.2991,"la2":30.254,"lo1":-89.0895,"lo2":-89.0444,"dy":0.0017,"dx":0.0017,"nx":28,"ny":28,"refTime":"2024-04-15T03:00:00:Z","depth":"4","parameterNumber":3,"parameterNumberName":"V-component_of_CURRENTS"},"data":[0,0,0,0,0,0,0,0,0,0,0,0,0,0,0,0,0,0,0,0,0,0,0,0,0,0,0,0,0,0,0,0,0,0,0,0,0,0,0,0,0,0,0,0,0,0,0,0,0,0,0,0,0,0,0,0,0,0,0.0047,0.0047,0,0.0052,0.0053,0.0053,0.0064,0.0064,0.0064,0.0064,0.0118,0.0119,0.0121,0,0,0,0,0,0,0,0,0,0,0,0,0,0.0041,0.0041,0.0047,0.0047,0.0047,0.0052,0.0053,0.0053,0.0064,0.0064,0.0064,0.0064,0.0117,0.0119,0.0121,0,0,0,0,0,0,0,0,0,0,0,0,0,0.0046,0.0041,0.0047,0.0052,0.0053,0.0052,0.0053,0.0053,0.0064,0.0064,0.0064,0.0064,0.0117,0.0119,0.0121,0.013,0,0,0.0127,0.0128,0,0,0,0,0,0,0,0,0.0046,0.0046,0.0052,0.0052,0.0052,0.0057,0.007,0.0081,0.0064,0.0061,0.0064,0.0064,0.0101,0.0104,0.0106,0.0133,0.0135,0.0127,0.0128,0.0129,0.013,0,0,0,0,0,0,0,0.0045,0.0046,0.0051,0.0052,0.0052,0.0052,0.0053,0.0072,0.0082,0.0061,0.0062,0.006,0.0102,0.0104,0.0107,0.0136,0.0127,0.0129,0.013,0.0131,0.0177,0.0177,0,0,0,0,0,0,0.0042,0.0046,0.005,0.0051,0.0048,0.0052,0.0053,0.0056,0.0081,0.0084,0.006,0.0061,0.01,0.0105,0.0109,0.0127,0.0129,0.0131,0.0132,0.0177,0.0177,0.0177,0,0,0,0,0,0,0.0042,0.0043,0.005,0.0047,0.0048,0.0052,0.0055,0.0056,0.006,0.0079,0.0083,0.0062,0.0101,0.0107,0.0126,0.0129,0.0132,0.0134,0.0177,0.0177,0.0177,0.0159,0,0,0,0,0,0,0.0042,0.0043,0.0045,0.0047,0.0048,0.0052,0.0055,0.0056,0.0058,0.0059,0.0083,0.0088,0.0101,0.0123,0.0128,0.0132,0.0135,0.0177,0.0177,0.0177,0.0159,0.0158,0.0157,0,0,0,0,0,0.0042,0.0045,0.0045,0.0046,0.0051,0.0052,0.0052,0.0056,0.0058,0.006,0.0075,0.0087,0.0127,0.0125,0.0131,0.0135,0.0177,0.0177,0.0177,0.016,0.0158,0.0157,0,0,0,0,0,0,0.0045,0.0046,0.0047,0.005,0.0051,0.0053,0.0055,0.0056,0.0068,0.007,0.0089,0.0095,0.0109,0.0126,0.0123,0.0148,0.0153,0.0154,0.0138,0.0137,0.0136,0.0143,0.0137,0,0,0,0,0,0.0045,0.0048,0.0048,0.0051,0.005,0.0052,0.0053,0.0055,0.0063,0.0068,0.0083,0.01,0.0113,0.0128,0.014,0.016,0.0158,0.0166,0.0165,0.0164,0.0174,0.0149,0.0147,0.0177,0.0177,0.0177,0,0,0.0047,0.0048,0.0049,0.0051,0.0052,0.006,0.0054,0.0055,0.0068,0.0074,0.0095,0.0094,0.0115,0.013,0.0139,0.0147,0.0156,0.0164,0.0163,0.0174,0.0149,0.0146,0.0143,0.0177,0.0177,0.0177,0,0,0.0053,0.0052,0.0056,0.006,0.0059,0.0063,0.0063,0.0064,0.0071,0.0085,0.0088,0.0086,0.0119,0.0125,0.0136,0.0138,0.0144,0.0145,0.0155,0.0131,0.0128,0.0126,0.0123,0.012,0.0152,0.0152,0.0152,0,0.0055,0.0066,0.0058,0.0065,0.0078,0.0066,0.0083,0.0083,0.0091,0.0104,0.0092,0.0108,0.0115,0.0134,0.0132,0.0135,0.0131,0.0157,0.0128,0.0126,0.0124,0.0121,0.0119,0.0152,0.0152,0.0152,0.0152,0,0.0065,0.0078,0.0081,0.0092,0.0102,0.0111,0.0116,0.0123,0.0124,0.0126,0.0131,0.0119,0.0133,0.0126,0.0134,0.0126,0.0132,0.0121,0.0129,0.0119,0.0118,0.0115,0.015,0.0151,0.0151,0.0151,0,0,0.0069,0.0086,0.0089,0.0118,0.0122,0.0142,0.0155,0.0175,0.0195,0.0173,0.0189,0.0178,0.0155,0.0165,0.0153,0.0131,0.0102,0.0124,0.0123,0.0118,0.0065,0.0069,0.0067,0.0082,0.0082,0.0081,0.0071,0,0.0085,0.0116,0.012,0.0169,0.0194,0.02,0.0224,0.0238,0.0234,0.0239,0.0205,0.021,0.0176,0.0176,0.0142,0.0112,0.0095,0.0108,0.008,0.0079,0.008,0.0063,0.0079,0.0069,0.0069,0.0069,0.0068,0,0.0098,0.0127,0.0169,0.0236,0.0249,0.0278,0.0327,0.0346,0.0337,0.0325,0.0295,0.0267,0.0231,0.0196,0.013,0.0139,0.0108,0.0077,0.0075,0.0087,0.0078,0.0082,0.0064,0.0064,0.0064,0.0065,0.0065,0,0.0117,0.0171,0.0216,0.0233,0.0288,0.0328,0.0366,0.0378,0.0402,0.0377,0.0367,0.0313,0.029,0.0222,0.0151,0.0143,0.0077,0.0057,0.0035,0.0036,0.0043,0.0046,0.0018,0.0018,0.0018,0.0018,0.0018,0,0.0135,0.0178,0.0239,0.0265,0.0356,0.0378,0.0457,0.0464,0.0467,0.0479,0.0416,0.0388,0.0293,0.0239,0.0168,0.0094,0.0089,0.0039,0.0029,0.0038,0.004,0.0042,0.0045,0.0017,0.0017,0.0017,0.0017,0,0.0139,0.0165,0.0239,0.0322,0.0363,0.0432,0.0532,0.0572,0.0554,0.0555,0.0546,0.0458,0.0379,0.0294,0.0195,0.013,0.0054,0.0036,0.0071,0.0063,0.0028,0.003,0.0006,0.0006,0.0006,0.0006,0.0006,0,0.0141,0.017,0.0287,0.0358,0.0405,0.0515,0.0584,0.0612,0.0626,0.0585,0.0566,0.0506,0.0439,0.0304,0.0206,0.0092,0.0072,0.0039,0.0011,0.0032,0.0025,0.0027,0.0029,0.0006,0.0006,0.0006,0.0006,0,0.0157,0.0192,0.0261,0.0403,0.0503,0.0598,0.0678,0.0682,0.0679,0.0676,0.0587,0.0505,0.0423,0.0304,0.0233,0.0138,0.0054,0.0038,0.0037,0.0011,0.0032,0.0025,0.0027,0.0006,0.0006,0.0006,0.0006,0,0.018,0.0239,0.0333,0.0459,0.0576,0.0628,0.0677,0.0693,0.0705,0.0632,0.0608,0.0503,0.0456,0.0329,0.0244,0.0171,0.014,0.0098,0.0093,0.0092,0.0111,0.0151,0.0154,0,0,0,0,0,0.0207,0.0271,0.039,0.0511,0.0613,0.0666,0.0715,0.0732,0.0714,0.0661,0.0631,0.0548,0.0409,0.0341,0.027,0.0236,0.0126,0.0148,0.0076,0.0005,0.0005,0.0012,0,0,0,0,0,0,0.0234,0.0329,0.0387,0.0513,0.0591,0.0682,0.07,0.0685,0.0647,0.062,0.0555,0.0527,0.0404,0.0462,0.027,0.0246,0.0185,0.0094,0.0092,0.0005,0.0005,0.0005,0.0012,0,0,0,0,0]}]]